Indianapolis Mount Comfort, IN

4:59 AM EST on December 15, 2019 (GMT -0500)
Mount Comfort

Weather History for KMQJ - November, 2019

Change the Weather History Date:

Thursday, November 14, 2019

  Actual Average (WUND) Record (WUND)
Temperature  
Mean Temperature 32 °F -  
Max Temperature 41 °F - - (-1)
Min Temperature 23 °F - - (-1)
Degree Days  
Heating Degree Days 33    
Moisture  
Dew Point 26 °F    
Average Humidity 84    
Maximum Humidity 100    
Minimum Humidity 57    
Precipitation  
Precipitation 0.00 in - - ()
Sea Level Pressure  
Sea Level Pressure 30.22 in    
Wind  
Wind Speed 5 mph ()    
Max Wind Speed 9 mph    
Max Gust Speed -    
Visibility 9.9 miles    
Events      
Averages and records for this station are not official NWS values.
T = Trace of Precipitation, MM = Missing Value Source: Averaged Metar Reports

Daily Weather History Graph

Daily Weather History Graph

Search for Another Location

Airport or City:

Astronomy

Nov. 14, 2019 Rise Set
Actual Time 7:26 AM EST 5:28 PM EST
Civil Twilight 6:58 AM EST 5:57 PM EST
Nautical Twilight 6:25 AM EST 6:30 PM EST
Astronomical Twilight 5:53 AM EST 7:01 PM EST
Moon 7:14 PM EST (11/14) 9:21 AM EST (11/14)
Length of Visible Light 10h 59m
Length of Day
10h 01m
Waning Gibbous, 95% of the Moon is Illuminated
Nov 14
Waning Gibbous
Nov 19
Last Quarter
Nov 26
New
Dec 4
First Quarter
Dec 12
Full

Hourly Weather History & Observations

Time (EST) Temp. Windchill Dew Point Humidity Pressure Visibility Wind Dir Wind Speed Gust Speed Precip Events Conditions
12:15 AM 28.4 °F 21.2 °F 23.0 °F 80% 30.14 in 10.0 mi SSW 6.9 mph - N/A   Clear
12:35 AM 28.4 °F 22.2 °F 23.0 °F 80% 30.14 in 10.0 mi SSW 5.8 mph - N/A   Clear
12:36 AM 28.4 °F 22.2 °F 23.0 °F 80% 30.14 in 10.0 mi SSW 5.8 mph - N/A   Clear
12:55 AM 28.4 °F 23.3 °F 23.0 °F 80% 30.14 in 10.0 mi SSW 4.6 mph - N/A   Clear
12:56 AM 28.4 °F 23.3 °F 24.8 °F 86% 30.14 in 10.0 mi South 4.6 mph - N/A   Clear
1:15 AM 26.6 °F 20.0 °F 24.8 °F 93% 30.14 in 10.0 mi South 5.8 mph - N/A   Scattered Clouds
1:35 AM 26.6 °F 20.0 °F 24.8 °F 93% 30.13 in 10.0 mi South 5.8 mph - N/A   Scattered Clouds
1:36 AM 26.6 °F 20.0 °F 24.8 °F 93% 30.13 in 10.0 mi South 5.8 mph - N/A   Scattered Clouds
1:55 AM 26.6 °F 19.1 °F 24.8 °F 93% 30.13 in 10.0 mi South 6.9 mph - N/A   Scattered Clouds
1:56 AM 28.4 °F 22.2 °F 24.8 °F 86% 30.13 in 10.0 mi South 5.8 mph - N/A   Scattered Clouds
2:15 AM 28.4 °F 22.2 °F 24.8 °F 86% 30.14 in 10.0 mi South 5.8 mph - N/A   Scattered Clouds
2:16 AM 28.4 °F 22.2 °F 24.8 °F 86% 30.14 in 10.0 mi SSW 5.8 mph - N/A   Scattered Clouds
2:35 AM 28.4 °F 22.2 °F 24.8 °F 86% 30.13 in 10.0 mi South 5.8 mph - N/A   Scattered Clouds
2:36 AM 28.4 °F 23.3 °F 24.8 °F 86% 30.13 in 10.0 mi South 4.6 mph - N/A   Scattered Clouds
2:55 AM 28.4 °F 23.3 °F 24.8 °F 86% 30.13 in 10.0 mi South 4.6 mph - N/A   Scattered Clouds
2:56 AM 28.4 °F 22.2 °F 24.8 °F 86% 30.13 in 10.0 mi South 5.8 mph - N/A   Scattered Clouds
3:15 AM 28.4 °F 23.3 °F 24.8 °F 86% 30.13 in 10.0 mi South 4.6 mph - N/A   Scattered Clouds
3:35 AM 28.4 °F 22.2 °F 24.8 °F 86% 30.14 in 10.0 mi South 5.8 mph - N/A   Mostly Cloudy
3:36 AM 28.4 °F 22.2 °F 24.8 °F 86% 30.14 in 10.0 mi South 5.8 mph - N/A   Mostly Cloudy
3:55 AM 28.4 °F 22.2 °F 24.8 °F 86% 30.13 in 10.0 mi South 5.8 mph - N/A   Mostly Cloudy
4:15 AM 28.4 °F 22.2 °F 24.8 °F 86% 30.13 in 10.0 mi South 5.8 mph - N/A   Mostly Cloudy
4:16 AM 28.4 °F 22.2 °F 24.8 °F 86% 30.13 in 10.0 mi South 5.8 mph - N/A   Mostly Cloudy
4:35 AM 28.4 °F 22.2 °F 24.8 °F 86% 30.14 in 10.0 mi South 5.8 mph - N/A   Mostly Cloudy
4:36 AM 28.4 °F 22.2 °F 24.8 °F 86% 30.14 in 10.0 mi South 5.8 mph - N/A   Mostly Cloudy
4:55 AM 28.4 °F 23.3 °F 24.8 °F 86% 30.14 in 10.0 mi SSW 4.6 mph - N/A   Scattered Clouds
5:15 AM 28.4 °F 21.2 °F 26.6 °F 93% 30.14 in 10.0 mi South 6.9 mph - N/A   Mostly Cloudy
5:36 AM 28.4 °F 24.6 °F 26.6 °F 93% 30.14 in 10.0 mi SSW 3.5 mph - N/A   Overcast
5:56 AM 28.4 °F 23.3 °F 26.6 °F 93% 30.15 in 10.0 mi SSW 4.6 mph - N/A   Overcast
6:15 AM 28.4 °F 23.3 °F 24.8 °F 86% 30.15 in 10.0 mi South 4.6 mph - N/A   Mostly Cloudy
6:55 AM 24.8 °F 19.1 °F 24.8 °F 100% 30.17 in 10.0 mi South 4.6 mph - N/A   Clear
7:15 AM 24.8 °F 20.5 °F 24.8 °F 100% 30.18 in 10.0 mi South 3.5 mph - N/A   Clear
7:35 AM 23.0 °F 18.4 °F 23.0 °F 100% 30.19 in 10.0 mi SSW 3.5 mph - N/A   Clear
7:55 AM 23.0 °F 17.0 °F 23.0 °F 100% 30.19 in 10.0 mi South 4.6 mph - N/A   Clear
8:15 AM 24.8 °F 20.5 °F 24.8 °F 100% 30.20 in 10.0 mi South 3.5 mph - N/A   Clear
8:16 AM 24.8 °F 20.5 °F 24.8 °F 100% 30.20 in 10.0 mi South 3.5 mph - N/A   Clear
8:35 AM 28.4 °F 24.6 °F 26.6 °F 93% 30.20 in 10.0 mi South 3.5 mph - N/A   Scattered Clouds
9:16 AM 30.2 °F 25.4 °F 26.6 °F 86% 30.21 in 10.0 mi SW 4.6 mph - N/A   Clear
9:35 AM 32.0 °F 27.5 °F 24.8 °F 75% 30.21 in 10.0 mi SW 4.6 mph - N/A   Clear
9:56 AM 33.8 °F 28.6 °F 24.8 °F 70% 30.21 in 10.0 mi West 5.8 mph - N/A   Scattered Clouds
10:15 AM 33.8 °F 27.0 °F 24.8 °F 70% 30.22 in 10.0 mi West 8.1 mph - N/A   Scattered Clouds
10:35 AM 32.0 °F 25.6 °F 26.6 °F 80% 30.23 in 10.0 mi West 6.9 mph - N/A   Scattered Clouds
10:36 AM 32.0 °F 26.4 °F 26.6 °F 80% 30.23 in 10.0 mi West 5.8 mph - N/A   Scattered Clouds
10:55 AM 33.8 °F 29.6 °F 24.8 °F 70% 30.23 in 10.0 mi West 4.6 mph - N/A   Mostly Cloudy
11:15 AM 33.8 °F 27.7 °F 24.8 °F 70% 30.23 in 10.0 mi West 6.9 mph - N/A   Mostly Cloudy
11:16 AM 33.8 °F 28.6 °F 24.8 °F 70% 30.23 in 10.0 mi West 5.8 mph - N/A   Mostly Cloudy
11:35 AM 35.6 °F 30.7 °F 26.6 °F 70% 30.23 in 10.0 mi SW 5.8 mph - N/A   Mostly Cloudy
11:56 AM 35.6 °F 31.7 °F 24.8 °F 65% 30.23 in 10.0 mi WSW 4.6 mph - N/A   Mostly Cloudy
12:15 PM 37.4 °F 33.8 °F 26.6 °F 65% 30.22 in 10.0 mi West 4.6 mph - N/A   Mostly Cloudy
12:35 PM 37.4 °F 33.8 °F 26.6 °F 65% 30.22 in 10.0 mi WSW 4.6 mph - N/A   Scattered Clouds
12:56 PM 37.4 °F 33.8 °F 26.6 °F 65% 30.22 in 10.0 mi West 4.6 mph - N/A   Clear
1:55 PM 41.0 °F 36.4 °F 28.4 °F 61% 30.21 in 10.0 mi West 6.9 mph - N/A   Clear
2:15 PM 41.0 °F 38.0 °F 28.4 °F 61% 30.22 in 10.0 mi WNW 4.6 mph - N/A   Scattered Clouds
2:35 PM 39.2 °F 33.0 °F 28.4 °F 65% 30.22 in 10.0 mi West 9.2 mph - N/A   Overcast
2:55 PM 41.0 °F 38.0 °F 28.4 °F 61% 30.22 in 10.0 mi West 4.6 mph - N/A   Overcast
3:15 PM 41.0 °F 37.1 °F 26.6 °F 57% 30.23 in 10.0 mi SW 5.8 mph - N/A   Overcast
3:36 PM 39.2 °F 35.0 °F 26.6 °F 61% 30.24 in 10.0 mi SW 5.8 mph - N/A   Overcast
3:55 PM 39.2 °F 35.9 °F 28.4 °F 65% 30.24 in 10.0 mi WSW 4.6 mph - N/A   Overcast
4:15 PM 39.2 °F 34.2 °F 28.4 °F 65% 30.24 in 10.0 mi West 6.9 mph - N/A   Overcast
4:35 PM 39.2 °F 35.0 °F 28.4 °F 65% 30.25 in 10.0 mi West 5.8 mph - N/A   Mostly Cloudy
4:55 PM 37.4 °F 31.4 °F 28.4 °F 70% 30.26 in 10.0 mi WNW 8.1 mph - N/A   Overcast
5:15 PM 37.4 °F 34.9 °F 30.2 °F 75% 30.26 in 10.0 mi NW 3.5 mph - N/A   Overcast
5:35 PM 35.6 °F 29.9 °F 30.2 °F 81% 30.26 in 10.0 mi NW 6.9 mph - N/A   Overcast
5:55 PM 35.6 °F 30.7 °F 30.2 °F 81% 30.27 in 10.0 mi NW 5.8 mph - N/A   Overcast
5:56 PM 35.6 °F 30.7 °F 30.2 °F 81% 30.27 in 10.0 mi NW 5.8 mph - N/A   Overcast
6:15 PM 33.8 °F 29.6 °F 30.2 °F 87% 30.27 in 10.0 mi NNW 4.6 mph - N/A   Overcast
6:16 PM 33.8 °F 29.6 °F 30.2 °F 87% 30.27 in 10.0 mi NW 4.6 mph - N/A   Overcast
6:35 PM 33.8 °F 29.6 °F 28.4 °F 81% 30.27 in 10.0 mi NW 4.6 mph - N/A   Overcast
6:55 PM 32.0 °F 28.7 °F 28.4 °F 87% 30.29 in 10.0 mi WNW 3.5 mph - N/A   Mostly Cloudy
7:15 PM 32.0 °F 27.5 °F 28.4 °F 87% 30.29 in 10.0 mi WNW 4.6 mph - N/A   Mostly Cloudy
7:16 PM 32.0 °F 27.5 °F 28.4 °F 87% 30.29 in 10.0 mi WNW 4.6 mph - N/A   Overcast
7:35 PM 32.0 °F - 28.4 °F 87% 30.29 in 10.0 mi Calm Calm - N/A   Mostly Cloudy
7:55 PM 32.0 °F 27.5 °F 28.4 °F 87% 30.29 in 10.0 mi NW 4.6 mph - N/A   Mostly Cloudy
8:15 PM 30.2 °F 25.4 °F 28.4 °F 93% 30.30 in 10.0 mi NW 4.6 mph - N/A   Mostly Cloudy
8:35 PM 32.0 °F 25.6 °F 28.4 °F 87% 30.31 in 10.0 mi NW 6.9 mph - N/A   Mostly Cloudy
8:36 PM 32.0 °F 25.6 °F 28.4 °F 87% 30.31 in 10.0 mi NW 6.9 mph - N/A   Mostly Cloudy
8:55 PM 30.2 °F 24.3 °F 26.6 °F 86% 30.32 in 10.0 mi WNW 5.8 mph - N/A   Scattered Clouds
8:56 PM 30.2 °F 24.3 °F 26.6 °F 86% 30.32 in 10.0 mi WNW 5.8 mph - N/A   Scattered Clouds
9:15 PM 28.4 °F 22.2 °F 26.6 °F 93% 30.32 in 10.0 mi WNW 5.8 mph - N/A   Clear
9:16 PM 28.4 °F 22.2 °F 26.6 °F 93% 30.32 in 10.0 mi WNW 5.8 mph - N/A   Clear
9:35 PM 28.4 °F 22.2 °F 26.6 °F 93% 30.32 in 10.0 mi WNW 5.8 mph - N/A   Clear
9:36 PM 28.4 °F 22.2 °F 26.6 °F 93% 30.32 in 10.0 mi WNW 5.8 mph - N/A   Clear
9:55 PM 26.6 °F 20.0 °F 26.6 °F 100% 30.32 in 10.0 mi WNW 5.8 mph - N/A   Clear
10:15 PM 26.6 °F 20.0 °F 26.6 °F 100% 30.32 in 10.0 mi WNW 5.8 mph - N/A   Clear
10:35 PM 26.6 °F 20.0 °F 26.6 °F 100% 30.32 in 10.0 mi NW 5.8 mph - N/A   Clear
10:55 PM 26.6 °F 21.2 °F 26.6 °F 100% 30.32 in 10.0 mi NW 4.6 mph - N/A   Clear
10:56 PM 26.6 °F 20.0 °F 26.6 °F 100% 30.32 in 10.0 mi NW 5.8 mph - N/A   Clear
11:15 PM 26.6 °F 20.0 °F 26.6 °F 100% 30.32 in 10.0 mi WNW 5.8 mph - N/A   Clear
11:35 PM 26.6 °F 21.2 °F 26.6 °F 100% 30.32 in 10.0 mi WNW 4.6 mph - N/A   Clear
11:36 PM 26.6 °F 21.2 °F 26.6 °F 100% 30.31 in 10.0 mi WNW 4.6 mph - N/A   Clear
11:55 PM 24.8 °F 17.9 °F 24.8 °F 100% 30.31 in 7.0 mi WNW 5.8 mph - N/A   Clear
11:56 PM 24.8 °F 17.9 °F 24.8 °F 100% 30.31 in 7.0 mi WNW 5.8 mph - N/A   Clear